Location: Unspecified
(0.0000°N, 0.0000°E)
Time: 02:43:37
(UTC+00:00)

Hubble Space Telescope - Visible Passes

Search period start: 25 August 2016 00:00
Search period end: 04 September 2016 00:00
Orbit: 539 x 543 km, 28.5° (Epoch: 24 August)

Date Brightness Start Highest point End Pass type
(mag) Time Alt. Az. Time Alt. Az. Time Alt. Az.
31 Aug 3.1 19:20:04 10° N 19:21:42 13° NNE 19:21:42 13° NNE visible
01 Sep 2.6 19:09:28 10° NNW 19:12:18 18° NNE 19:12:42 17° NE visible
02 Sep 2.2 18:59:11 10° NNW 19:02:35 24° NNE 19:03:45 21° NE visible
03 Sep 1.7 18:49:05 10° NW 18:52:52 34° NNE 18:54:53 21° E visible
03 Sep 4.1 20:30:15 10° W 20:30:18 10° W 20:30:18 10° W visible
